Showing default

APRIZESAT 9, 40018

Orbit data source: Space-Track

APRIZESAT 9, 40018 is a payload satellite owned by SpaceQuest (US) in SSO that was launched on Thu, 19 Jun 2014 UTC via a DNEPR launch vehicle from the Orenburg, Russia (OREN). Payload-class satellites include a variety of spacecraft equipped with specific instruments for various scientific and technological missions. These include communications satellites like Starlink; space stations such as the ISS; scientific satellites like the Hubble; Earth observation satellites from companies like Planet Labs, Umbra, and HawkEye 360; GPS; miniature CubeSats for education and research; and military/defense satellites.

Loading next visibility...
Identifier
40018, 2014-033J
Orbit
SSO
Country
Flag of USUS
Related business
Manufacturer
SpaceQuest
Mission
Operational Commercial Communications
Bus & Motor
APRIZE, Unknown motor
Mass
14 kg wet, 14 kg dry
Launch date (UTC)
2014-06-19 (11 years ago)
Launch vehicle
DNEPR
Launch site
Orenburg, Russia (OREN)
Object type
Payload
Rocket body
Debris
Shape & HBR
Box + 1 Ant, 0.1 m
Radar Cross Section
0.060 m², Medium (>0.1 m² and < 1m²)

Expand to show TLE details & history
Last TLE update: 12 hours ago

TLE from 12 hours ago
0 APRIZESAT 9
1 40018U 14033J   25340.62986633  .00001613  00000-0  24482-3 0  9995
2 40018  97.8789 113.9206 0067878  99.2895 261.5998 14.73870551615196
Epoch: 2025-12-06T15:07Z
TLE epoch observation values (Epoch: 2025-12-06T15:07:00.450Z)
Latitude
-0.00005°
Longitude
171.51388°
Altitude
659.039 km
Speed
7.524 km/s
True Right ascension
07h 35m 40s
True Declination
0° 00' 00"
Sunlit
Object was in full shadow at epoch
Visualization orbit readout
Latitude
Unknown
Longitude
Unknown
Altitude
Unknown
Speed
Unknown
Apparent Right ascension
Unknown
Apparent Declination
Unknown
Sunlit
N/A
Visualization observer readout
Local Sidereal Time
01:34:23
Azimuth
Unknown
Elevation
Unknown
Doppler factor
Unknown
Orbital elements
Apogee altitude
693.464 km
Perigee altitude
598.11 km
Semi-major axis
7,023.924 km
Eccentricity
0.00679
Inclination
97.8789°
RAAN
113.9206°
Arg. of periapsis
99.2895°
True anomaly
260.8313°
Mean anomaly
261.5998°
Eccentric anomaly
261.21545°
Mean motion
3.687 °/min
Orbital period
97.64 mins
BSTAR
0.00024482
Loading maneuver chart data...
Computing Atmospheric mass density...
Loading historical data...
Loading historical data...
Loading historical data...
Loading historical data...
Loading historical data...
Loading historical data...
Loading historical data...

Documentation

Showing up to 5 results
|